CAPE
65 192 161 13 0 0 0 0 8 1 0 0 0 0 1 11 4 0 0 1 4 6 3 3 7 4 3 1 0 0 0 0 0 0 0 0 0 0 0 0 0 0 0
93 150 89 112 18 36 13 3 15 0 0 0 0 0 0 0 8 4 0 0 3 4 8 4 4 5 6 2 0 0 1 0 0 0 0 0 0 0 0 0 0 0 0
140 109 173 166 112 97 90 46 1 0 0 0 0 0 0 0 0 8 0 0 0 0 2 4 3 1 5 4 2 0 0 0 0 0 0 0 0 0 0 0 0 0 0
156 172 146 114 100 131 127 48 3 0 0 0 0 0 0 0 0 0 1 4 0 0 0 3 5 9 1 4 5 3 1 0 0 0 0 0 0 0 0 0 0 0 0
131 150 119 115 158 119 88 62 17 0 2 0 0 0 0 0 0 0 0 0 1 0 0 0 0 0 8 8 3 7 15 5 1 0 0 0 0 0 0 0 0 0 0
131 101 105 127 110 70 49 55 30 37 41 18 0 0 0 0 0 0 0 0 0 0 0 0 0 0 0 2 9 13 17 21 16 4 1 2 0 0 0 0 0 0 0
102 106 79 99 136 120 101 103 95 110 64 46 1 0 0 0 0 0 0 0 0 0 0 0 0 0 0 0 0 13 26 25 38 26 16 11 2 0 0 0 0 0 0
77 39 41 47 67 157 193 168 148 161 143 117 63 59 59 7 0 0 0 0 0 0 0 0 0 0 0 0 0 5 8 6 18 21 18 16 27 20 1 0 0 0 0
82 53 70 104 110 154 229 222 253 211 127 180 141 118 65 93 136 30 0 0 0 0 0 0 0 0 0 0 0 0 0 0 7 1 0 0 12 17 32 3 0 1 2
58 77 128 98 152 163 191 233 261 249 109 75 153 144 188 198 124 46 27 0 0 0 0 0 0 0 0 0 0 0 1 0 0 0 0 0 0 0 0 23 21 22 14
80 54 84 62 38 181 202 234 199 194 174 40 44 160 141 106 122 98 28 35 1 0 0 0 0 0 0 0 0 0 0 0 0 0 0 0 0 0 0 0 9 23 22
62 67 39 16 57 112 194 100 82 70 58 82 42 69 90 72 65 67 71 113 110 24 0 0 0 0 0 0 0 0 0 0 0 0 0 0 0 0 0 0 0 0 12
27 67 35 7 1 8 32 54 48 34 52 45 72 55 51 108 114 91 47 59 39 0 0 0 0 0 0 0 0 0 0 0 0 0 0 0 0 0 0 0 0 0 0
0 25 19 1 2 4 30 22 41 25 35 53 38 68 100 92 123 178 109 13 0 0 8 0 0 0 0 0 0 0 0 0 0 0 0 0 0 0 0 0 0 0 0
0 1 5 12 10 17 30 31 49 58 31 40 56 124 119 169 254 236 72 3 0 9 0 0 0 0 0 0 0 0 0 0 0 0 0 0 0 0 0 0 0 0 0
0 1 4 9 9 3 15 26 21 51 33 42 92 109 130 176 225 153 6 3 13 5 3 6 0 0 0 0 0 0 0 0 0 0 0 0 0 0 0 0 0 0 0
0 0 0 1 1 2 22 33 29 34 34 44 36 49 67 155 128 105 84 19 2 0 1 1 0 0 0 0 0 0 0 0 0 0 0 0 0 0 0 0 0 0 0
16 0 13 10 11 10 14 16 28 28 19 23 16 35 31 44 64 41 8 0 1 0 0 1 0 0 0 0 0 0 0 0 0 0 0 0 0 0 0 0 0 0 0
9 17 27 17 14 15 20 31 26 21 20 4 3 19 32 4 4 0 0 2 2 2 2 1 0 0 0 0 0 0 0 0 0 0 0 0 0 0 0 0 0 0 0
4 4 2 4 9 13 16 16 15 11 3 0 4 13 13 0 0 0 0 0 1 2 2 1 0 0 0 0 0 0 0 0 0 0 0 0 0 0 0 0 0 0 0
0 1 2 1 0 0 0 0 2 2 4 4 3 1 0 1 0 0 0 1 2 2 3 1 1 0 0 0 0 0 0 0 0 0 0 0 0 0 0 0 0 0 0
11 18 0 0 3 0 0 0 0 11 8 14 5 0 0 0 0 0 0 0 0 1 2 2 2 2 0 0 0 0 0 0 0 0 0 0 0 0 0 0 0 0 0
59 40 21 6 2 0 0 0 0 0 4 1 0 0 0 0 0 0 0 0 0 0 0 1 1 1 1 0 0 0 0 0 0 0 0 0 0 0 0 0 0 0 0
92 80 74 57 48 28 0 0 0 0 2 2 2 2 0 0 1 0 1 0 1 1 0 0 0 0 0 0 0 0 0 0 0 0 0 0 0 0 0 0 0 0 0
100 94 96 73 47 46 1 0 0 0 0 0 1 2 1 2 4 1 2 4 1 1 1 0 0 1 0 0 0 0 0 0 0 0 0 0 0 0 0 0 0 0 0
109 126 8 0 0 0 0 0 0 0 0 2 4 6 2 1 3 3 1 1 0 2 0 0 0 0 0 0 0 0 0 0 0 0 0 0 0 0 0 0 0 0 0
CIN
-2 -1 -0 -6 -0 -2 -0 -0 -0 -0 -0 -0 -0 -0 -0 -1 -0 -0 -0 -2 -3 -1 -0 -1 -0 -0 -0 -0 -0 -0 -0 -0 -0 -0 -0 -0 -0 -0 -0 -0 -0 -0 -0
-7 -3 -3 -0 -0 -6 -35 -0 -1 -0 -0 -0 -0 -0 -0 -0 -1 -1 -0 -0 -3 -4 -1 -0 -0 -0 -0 -0 -0 -0 -0 -0 -0 -0 -0 -0 -0 -0 -0 -0 -0 -0 -0
-14 -3 -3 -1 -1 -2 -0 -3 -0 -0 -0 -0 -0 -0 -0 -0 -0 -1 -0 -0 -0 -0 -5 -1 -0 -0 -0 -0 -0 -0 -0 -0 -0 -0 -0 -0 -0 -0 -0 -0 -0 -0 -0
-11 -9 -2 -5 -7 -0 -1 -8 -35 -0 -0 -0 -0 -0 -0 -0 -0 -0 -0 -42 -0 -0 -0 -1 -1 -1 -0 -0 -0 -0 -0 -0 -0 -0 -0 -0 -0 -0 -0 -0 -0 -0 -0
-20 -21 -25 -3 -1 -1 -0 -4 -35 -0 -14 -8 -0 -0 -0 -0 -0 -0 -0 -0 -0 -0 -58 -0 -0 -0 -2 -1 -0 -0 -0 -0 -0 -0 -0 -0 -0 -0 -0 -0 -0 -0 -0
-16 -36 -22 -22 -27 -27 -41 -22 -14 -8 -14 -26 -0 -0 -0 -0 -0 -0 -0 -0 -0 -0 -0 -0 -0 -0 -0 -0 -1 -0 -0 -0 -0 -0 -0 -0 -0 -0 -0 -0 -0 -0 -0
-21 -49 -45 -60 -26 -40 -37 -20 -4 -5 -20 -14 -2 -0 -0 -0 -0 -0 -0 -0 -0 -0 -0 -0 -0 -0 -0 -0 -0 -0 -0 -0 -0 -1 -0 -2 -0 -0 -0 -0 -0 -0 -0
-19 -37 -30 -37 -43 -9 -1 -7 -1 -18 -14 -30 -27 -8 -4 -4 -0 -0 -0 -0 -0 -0 -0 -0 -0 -0 -0 -0 -0 -8 -1 -0 -0 -0 -1 -2 -2 -1 -0 -0 -0 -0 -0
-10 -25 -27 -51 -41 -13 -0 -3 -1 -7 -14 -26 -32 -5 -8 -4 -12 -55 -0 -0 -0 -0 -0 -0 -0 -0 -0 -0 -0 -0 -0 -0 -3 -0 -0 -0 -2 -2 -2 -2 -0 -0 -0
-51 -54 -25 -48 -18 -9 -0 -2 -3 -7 -18 -14 -18 -35 -20 -10 -1 -4 -17 -0 -0 -0 -0 -0 -0 -0 -0 -0 -0 -0 -16 -0 -0 -0 -0 -0 -0 -0 -0 -0 -0 -0 -0
-16 -55 -52 -49 -46 -7 -17 -16 -19 -21 -25 -22 -31 -6 -3 -12 -6 -1 -7 -15 -20 -0 -0 -0 -0 -0 -0 -0 -0 -0 -0 -0 -0 -0 -0 -0 -0 -0 -0 -0 -0 -0 -0
-8 -31 -69 -47 -35 -20 -27 -31 -16 -30 -16 -29 -16 -4 -9 -0 -0 -2 -0 -1 -6 -29 -0 -0 -0 -0 -0 -0 -0 -0 -0 -0 -0 -0 -0 -0 -0 -0 -0 -0 -0 -0 -0
-24 -42 -50 -55 -30 -47 -8 -22 -48 -41 -10 -32 -14 -13 -5 -8 -5 -4 -4 -10 -23 -0 -0 -0 -0 -0 -0 -0 -0 -0 -0 -0 -0 -0 -0 -0 -0 -0 -0 -0 -0 -0 -0
-6 -45 -49 -51 -35 -29 -46 -10 -35 -18 -24 -33 -27 -9 -3 -5 -5 -2 -7 -39 -0 -0 -30 -0 -0 -0 -0 -0 -0 -0 -0 -0 -0 -0 -0 -0 -0 -0 -0 -0 -0 -0 -0
-8 -72 -54 -62 -44 -26 -14 -4 -2 -2 -24 -29 -21 -6 -2 -1 -0 -0 -17 -72 -8 -16 -0 -0 -0 -0 -0 -0 -0 -0 -0 -0 -0 -0 -0 -0 -0 -0 -0 -0 -0 -0 -0
-0 -30 -55 -48 -39 -31 -21 -11 -5 -2 -7 -4 -4 -3 -1 -0 -0 -1 -25 -9 -25 -14 -3 -13 -1 -0 -0 -0 -0 -0 -0 -0 -0 -0 -0 -0 -0 -0 -0 -0 -0 -0 -0
-0 -0 -0 -27 -19 -29 -11 -8 -8 -3 -1 -1 -1 -1 -2 -0 -3 -3 -0 -11 -5 -0 -2 -11 -0 -0 -0 -0 -0 -0 -0 -0 -0 -0 -0 -0 -0 -0 -0 -0 -0 -0 -0
-0 -0 -0 -1 -3 -2 -0 -2 -0 -1 -1 -1 -18 -2 -15 -15 -6 -18 -34 -2 -0 -0 -0 -31 -0 -0 -0 -0 -0 -0 -0 -0 -0 -0 -0 -0 -0 -0 -0 -0 -0 -0 -0
-0 -0 -0 -0 -0 -0 -0 -0 -0 -0 -0 -0 -6 -10 -7 -62 -54 -0 -0 -0 -0 -0 -0 -0 -0 -0 -0 -0 -0 -0 -0 -0 -0 -0 -0 -0 -0 -0 -0 -0 -0 -0 -0
-0 -0 -0 -0 -0 -0 -0 -0 -0 -0 -0 -0 -1 -8 -36 -0 -0 -0 -0 -0 -0 -0 -0 -0 -0 -0 -0 -0 -0 -0 -0 -0 -0 -0 -0 -0 -0 -0 -0 -0 -0 -0 -0
-0 -0 -0 -0 -0 -0 -0 -0 -0 -0 -0 -1 -2 -1 -0 -0 -0 -0 -0 -0 -0 -0 -0 -0 -0 -0 -0 -0 -0 -0 -0 -0 -0 -0 -0 -0 -0 -0 -0 -0 -0 -0 -0
-254 -238 -0 -0 -169 -0 -0 -0 -0 -39 -65 -46 -58 -0 -0 -0 -0 -0 -0 -0 -0 -0 -0 -0 -0 -0 -0 -0 -0 -0 -0 -0 -0 -0 -0 -0 -0 -0 -0 -0 -0 -0 -0
-264 -276 -271 -151 -69 -0 -0 -0 -0 -0 -41 -19 -0 -0 -0 -0 -0 -0 -0 -0 -0 -0 -0 -0 -0 -0 -0 -0 -0 -0 -0 -0 -0 -0 -0 -0 -0 -0 -0 -0 -0 -0 -0
-316 -296 -273 -252 -223 -229 -0 -0 -0 -0 -3 -2 -4 -0 -0 -0 -0 -0 -0 -0 -0 -0 -0 -0 -0 -0 -0 -0 -0 -0 -0 -0 -0 -0 -0 -0 -0 -0 -0 -0 -0 -0 -0
-299 -297 -256 -234 -232 -215 -5 -0 -0 -0 -0 -0 -0 -0 -0 -0 -0 -0 -0 -0 -0 -0 -0 -0 -0 -0 -0 -0 -0 -0 -0 -0 -0 -0 -0 -0 -0 -0 -0 -0 -0 -0 -0
-235 -208 -259 -0 -0 -0 -0 -0 -0 -0 -0 -0 -0 -0 -0 -0 -0 -0 -0 -0 -0 -0 -0 -0 -0 -0 -0 -0 -0 -0 -0 -0 -0 -0 -0 -0 -0 -0 -0 -0 -0 -0 -0
Wind_Speed
11 12 16 15 14 10 8 6 3 1 3 2 4 5 6 7 8 6 4 5 6 6 7 8 10 11 12 12 12 13 13 13 13 14 14 15 16 16 18 19 19 19 20
9 12 16 15 14 11 9 6 2 2 1 2 3 5 5 6 6 5 3 3 3 4 5 7 9 10 11 11 11 11 11 11 11 11 12 12 13 14 16 17 18 18 18
14 11 15 16 15 11 10 7 4 2 0 2 3 3 4 4 5 5 4 4 4 4 3 5 5 7 6 7 8 8 8 8 8 9 9 10 11 12 15 16 16 16 17
14 12 12 14 15 12 11 8 6 2 2 1 3 2 2 3 4 7 8 5 5 6 5 5 3 3 4 4 5 6 7 7 6 6 7 8 9 11 12 13 14 15 16
14 13 11 14 14 11 13 9 7 5 5 2 2 2 2 2 4 7 10 12 11 9 6 2 3 4 3 2 4 4 4 4 5 6 7 8 8 9 9 10 12 13 15
15 13 13 11 15 12 13 11 9 7 5 5 3 4 3 4 6 8 11 12 12 12 15 9 8 9 5 5 4 5 5 5 4 6 7 7 6 6 7 9 10 13 14
14 13 11 12 11 13 15 12 9 5 5 5 3 4 5 5 7 8 11 10 13 11 12 14 12 12 9 7 7 7 7 8 9 9 7 7 7 7 7 9 12 12 14
14 13 13 14 13 15 13 10 7 5 4 3 3 2 7 8 10 6 12 11 9 11 11 12 11 11 15 11 9 9 9 10 10 10 10 10 9 10 11 11 12 13 15
12 15 12 12 13 11 11 9 7 6 5 3 3 10 10 10 2 2 4 8 10 11 14 12 12 12 12 13 12 12 9 9 11 11 13 14 14 13 15 13 14 15 16
11 15 14 15 13 13 10 9 8 7 6 7 7 23 29 27 24 13 5 6 11 11 11 12 11 13 13 14 13 15 11 8 11 15 15 16 17 19 19 16 16 16 17
13 16 16 15 15 17 15 11 9 8 13 16 20 23 13 15 17 20 24 14 11 10 12 13 15 16 16 14 14 17 11 13 13 13 16 18 20 22 21 21 20 19 20
15 15 17 16 17 16 15 15 22 30 27 26 30 18 18 15 13 15 19 22 26 21 21 20 17 15 15 13 12 13 13 13 13 16 18 21 22 23 23 23 23 24 23
18 20 18 20 19 20 16 21 24 31 39 30 25 29 18 19 20 22 20 21 28 29 25 24 20 21 17 15 13 13 13 13 13 16 18 21 22 24 24 25 24 24 26
28 26 19 19 20 19 18 16 18 16 30 31 32 22 22 21 21 22 22 22 33 29 24 19 15 19 17 15 15 13 13 13 14 16 18 20 22 24 25 26 26 27 28
23 27 27 28 27 26 27 25 20 17 20 21 24 21 23 23 24 25 23 26 25 28 26 25 23 16 16 15 15 14 13 13 15 16 19 22 24 25 26 28 28 29 30
24 25 25 28 28 31 32 34 32 19 19 19 22 23 23 26 27 26 27 27 25 26 30 27 23 22 15 16 14 13 14 15 15 17 20 23 26 27 28 29 29 30 31
19 21 21 23 24 25 24 21 21 20 20 22 25 26 28 28 29 30 29 27 26 27 32 31 28 23 18 17 17 16 17 19 19 20 22 24 26 28 29 30 31 32 33
17 19 19 21 22 22 22 23 23 21 23 24 24 26 29 27 28 27 29 31 30 30 31 33 24 24 21 18 18 18 18 20 22 23 21 24 26 28 30 32 32 32 34
17 20 21 25 25 24 24 24 23 23 23 25 25 26 26 26 26 27 32 33 29 29 26 26 22 21 22 20 21 20 22 23 25 23 22 25 28 30 31 31 31 32 33
17 20 21 22 22 22 23 24 24 24 25 25 25 26 27 27 27 28 27 27 27 25 25 24 25 24 23 24 21 25 26 23 25 24 25 27 28 29 29 31 30 32 33
18 18 19 22 23 23 23 23 24 27 28 28 30 31 30 30 31 30 29 28 27 29 30 25 27 25 27 25 26 24 26 25 25 26 30 30 30 29 29 28 30 33 35
18 19 20 21 22 24 24 26 26 27 28 30 32 31 30 34 32 33 30 29 27 28 28 28 27 29 26 27 23 25 25 28 32 28 30 30 29 31 32 33 35 36 36
17 19 19 20 22 23 24 26 27 28 31 32 32 34 35 35 32 32 30 28 28 28 27 28 28 27 30 23 22 23 25 30 33 29 31 36 33 36 35 37 35 36 36
17 18 19 19 20 21 23 24 26 29 30 31 34 36 35 35 31 28 27 25 27 25 24 24 21 22 24 22 21 26 29 31 32 32 31 39 34 38 36 38 38 37 36
18 18 17 19 21 23 24 23 23 27 30 32 32 31 29 29 26 23 23 23 22 23 22 20 19 21 19 22 24 27 31 34 38 36 30 38 39 42 38 39 40 36 33
20 19 18 20 24 25 28 27 24 25 27 28 28 28 26 24 21 21 21 20 22 22 21 23 25 19 21 25 28 28 31 35 37 39 34 37 38 40 46 38 33 34 36
Wind_Direction
193 172 201 200 205 202 198 192 243 144 80 36 53 48 47 47 59 48 44 68 63 49 46 51 54 59 57 54 48 48 44 45 46 41 41 36 31 29 24 20 19 19 19
191 170 200 200 209 207 211 214 217 143 82 52 59 64 52 53 52 50 355 24 31 33 44 45 61 65 67 59 58 55 48 49 43 43 40 35 31 27 20 16 16 18 18
207 198 205 211 213 212 219 234 218 223 57 48 67 59 42 39 24 345 330 335 313 326 23 63 68 60 38 55 52 46 52 50 44 38 33 29 25 20 12 8 13 13 13
181 187 207 217 224 225 229 229 219 209 277 15 65 71 29 2 341 308 302 309 308 315 329 328 58 49 79 66 36 28 24 21 29 26 19 11 8 4 3 5 8 7 6
192 191 182 218 219 220 233 232 236 257 276 310 5 7 352 348 318 299 292 291 294 301 317 322 319 322 326 336 355 6 0 358 2 360 352 344 349 356 1 3 1 0 356
215 208 216 219 222 229 233 242 249 266 281 293 305 316 339 325 306 297 290 290 294 297 295 312 308 309 301 297 303 322 326 319 316 322 327 325 331 340 341 346 349 347 346
196 193 203 219 219 230 240 248 256 263 279 290 306 324 329 318 306 298 293 293 290 296 299 301 308 309 306 286 287 288 297 305 306 303 298 301 299 306 310 321 330 332 333
190 195 181 176 223 238 240 239 246 263 265 278 299 330 317 312 297 289 291 291 294 295 295 298 301 306 312 310 302 281 283 295 303 307 309 304 298 299 301 301 310 316 320
196 212 186 203 202 221 234 229 229 214 200 232 215 309 315 316 336 291 255 287 292 292 295 295 294 297 300 306 307 292 269 271 295 307 308 314 311 304 305 296 300 304 309
200 216 210 195 215 230 231 227 234 239 242 268 288 273 263 277 296 321 318 296 297 293 293 295 288 291 295 300 294 302 292 254 277 296 303 307 312 315 317 304 297 298 298
194 197 207 219 223 250 250 245 239 248 276 275 274 279 298 303 303 302 300 315 310 296 297 293 291 289 288 288 290 296 284 291 293 291 297 302 306 310 309 310 308 303 300
209 216 215 217 230 234 241 253 266 262 268 268 267 282 289 298 305 305 305 303 301 304 305 301 295 292 293 288 278 292 289 282 285 292 296 302 305 308 308 309 308 306 306
216 226 228 227 226 245 241 260 262 266 252 269 277 278 289 291 297 300 302 302 302 306 301 279 284 289 290 292 286 283 284 284 287 294 298 304 308 310 311 312 312 312 312
191 190 206 223 219 231 229 235 255 225 271 275 276 279 285 289 293 295 296 299 305 304 302 299 289 286 287 287 289 290 291 286 291 295 300 304 307 309 310 312 313 313 314
187 191 196 197 202 206 207 212 218 250 269 275 275 274 280 286 291 294 294 297 297 299 294 292 289 283 283 285 292 294 291 292 294 296 300 304 307 309 310 310 312 313 314
189 192 196 201 205 207 209 213 217 243 261 264 271 275 279 286 291 291 292 294 291 287 294 292 285 288 282 287 285 289 296 303 297 299 303 306 307 308 310 311 311 313 314
189 194 200 203 206 209 215 227 229 241 248 266 272 276 282 285 289 292 293 293 289 291 293 292 289 280 278 279 295 293 298 303 303 300 302 306 306 307 309 310 310 311 313
196 202 202 207 208 215 222 225 230 250 257 261 269 276 279 282 285 288 290 286 287 283 287 289 281 277 274 281 288 293 296 301 305 309 302 307 308 308 309 309 309 311 312
205 205 206 208 211 217 223 227 237 244 255 264 265 271 274 277 280 286 292 289 286 282 280 285 283 284 282 284 287 295 301 302 307 311 310 309 308 308 309 309 310 311 312
219 217 217 219 224 229 233 235 240 247 251 260 264 267 270 271 274 282 284 284 280 281 278 279 282 278 281 289 285 292 299 300 304 309 312 312 312 311 310 309 310 311 313
232 231 236 235 236 244 247 244 250 257 263 266 274 277 276 275 276 279 285 285 283 278 275 281 281 279 281 281 278 290 296 302 307 311 312 312 313 314 313 313 311 311 311
234 237 236 241 246 250 249 249 253 268 270 271 276 279 281 285 279 278 274 279 279 282 273 277 277 277 272 281 281 292 296 302 306 312 311 312 314 313 314 313 314 315 315
248 244 248 250 250 255 255 255 257 263 273 277 279 280 284 288 288 288 286 287 288 290 284 282 284 288 285 280 287 293 299 304 308 312 315 311 314 312 314 313 315 315 315
241 247 254 259 265 268 269 265 266 271 274 274 277 283 283 284 288 289 290 290 294 297 294 296 294 299 300 291 299 303 306 310 313 313 313 309 313 312 315 314 315 315 314
247 248 259 267 273 279 283 279 277 279 283 287 290 291 289 289 288 285 286 286 292 297 307 306 311 307 306 300 306 308 309 310 310 311 313 311 312 313 314 316 316 315 317
261 266 272 285 290 290 292 289 286 286 286 290 295 297 296 293 291 290 288 285 287 294 297 303 305 304 309 305 307 312 313 310 311 313 318 313 314 317 314 316 318 322 321